Regional Weather Roundup
Issued by NWS

Home | Current Version | Previous Version | Text Only | Print | Product List | Glossary On
Versions: 1 2 3 4 5 6 7 8 9 10 11 12 13 14 15 16 17 18 19 20 21 22 23 24 25 26 27 28 29 30 31 32 33 34 35 36 37 38 39 40 41 42 43 44 45 46 47 48 49 50
000
ASMX46 KSGX 120711
RWRMX

MEXICAN WEATHER ROUNDUP
NATIONAL WEATHER SERVICE SAN DIEGO CA
1100 PM PST MON DEC 11 2017

BAJA CALIFORNIA

CITY           SKY/WX    TMP DP  RH WIND       PRES   REMARKS
ENSENADA NW      N/A     64  32  30 CALM      30.10R
MEXICALI       CLEAR     57  52  82 W3        30.21S
S.J. DEL CABO    N/A    N/A N/A N/A MISG        N/A
TIJUANA        CLEAR     66   1   7 CALM      30.21S

NORTHWESTERN MEXICO

CITY           SKY/WX    TMP DP  RH WIND       PRES   REMARKS
HERMOSILLO     CLEAR     63  39  42 CALM      30.16F

NORTHEASTERN MEXICO

CITY           SKY/WX    TMP DP  RH WIND       PRES   REMARKS
MONCLOVA         N/A    N/A N/A N/A MISG        N/A
MONTERREY      MOCLDY    52  45  76 W6        30.26S
REYNOSA          N/A    N/A N/A N/A MISG        N/A
SALTILLO       PTCLDY    43  34  70 CALM      30.37F
VICTORIA         N/A    N/A N/A N/A MISG        N/A

WESTERN MEXICO

CITY           SKY/WX    TMP DP  RH WIND       PRES   REMARKS
AGUASCALIENTES   N/A    N/A N/A N/A MISG        N/A
COLIMA           N/A    N/A N/A N/A MISG        N/A
GUADALAJARA    PTCLDY    41  27  56 CALM      30.29F
MAZATLAN       MOCLDY    61  55  82 NE5       30.01F
PTO. VALLARTA  CLEAR     64  59  82 N5        30.01S
TEPIC            N/A    N/A N/A N/A MISG        N/A
URUAPAN          N/A    N/A N/A N/A MISG        N/A
ZACATECAS        N/A    N/A N/A N/A MISG        N/A

CENTRAL MEXICO

CITY           SKY/WX    TMP DP  RH WIND       PRES   REMARKS
CUERNAVACA       N/A    N/A N/A N/A MISG        N/A
MEXICO CITY    CLEAR     43  23  45 E6        30.41S
MORELIA        PTCLDY    36  25  64 CALM      30.34R
POZA RICA        N/A    N/A N/A N/A MISG        N/A
S. LUIS POTOSI PTCLDY    37  18  44 SW6       30.38  WCI  33
TOLUCA         CLEAR     34  19  55 NE3       30.43S
VERACRUZ         N/A    N/A N/A N/A MISG        N/A

SOUTHERN MEXICO

CITY           SKY/WX    TMP DP  RH WIND       PRES   REMARKS
ACAPULCO       PTCLDY    77  70  78 N10       29.99F
B. DE HUATULCO   N/A    N/A N/A N/A MISG        N/A
MINATITLAN       N/A    N/A N/A N/A MISG        N/A
PTO. ESCONDIDO   N/A    N/A N/A N/A MISG        N/A
TAPACHULA      PTCLDY    75  72  88 CALM      29.94F

YUCATAN PENINSULA

CITY           SKY/WX    TMP DP  RH WIND       PRES   REMARKS
CAMPECHE         N/A    N/A N/A N/A MISG        N/A
CANCUN         CLEAR     57  57 100 W6        30.15F
CHETUMAL         N/A    N/A N/A N/A MISG        N/A
C. DEL CARMEN    N/A    N/A N/A N/A MISG        N/A
COZUMEL        PTCLDY    72  61  68 N12       30.13F
MERIDA         PTCLDY    59  57  94 CALM      30.18F

$$





USA.gov is the U.S. government's official web portal to all federal, state and local government web resources and services.